Weather History for KBLM - October, 2014

Change the Weather History Date:

Sunday, October 26, 2014

  Actual Average Record
Temperature  
Mean Temperature 55 °F -  
Max Temperature 62 °F 58 °F 71 °F (2010)
Min Temperature 48 °F 42 °F 33 °F (2013)
Degree Days  
Heating Degree Days 10    
Growing Degree Days 5 (Base 50)    
Moisture  
Dew Point 37 °F    
Average Humidity 48    
Maximum Humidity 67    
Minimum Humidity 36    
Precipitation  
Precipitation 0.00 in - - ()
Sea Level Pressure  
Sea Level Pressure 29.68 in    
Wind  
Wind Speed 11 mph (WNW)    
Max Wind Speed 26 mph    
Max Gust Speed 33 mph    
Visibility 10 miles    
Events      
Averages and records for this station are not official NWS values.
T = Trace of Precipitation, MM = Missing Value Source: NWS Daily Summary

Daily Weather History Graph

Daily Weather History Graph

Search for Another Location

Airport or City:

Trip Planner

Search our weather history database for the weather conditions in past years. The results will help you decide how hot, cold, wet, or windy it might be!

Date:

Astronomy

Oct. 26, 2014 Rise Set
Actual Time 7:19 AM EDT 6:01 PM EDT
Civil Twilight 6:51 AM EDT 6:29 PM EDT
Nautical Twilight 6:19 AM EDT 7:00 PM EDT
Astronomical Twilight 5:47 AM EDT 7:32 PM EDT
Moon 9:54 AM EDT (10/26) 8:10 PM EDT (10/26)
Length of Visible Light 11h 37m
Length of Day
10h 42m
Waxing Crescent, 8% of the Moon is Illuminated
Oct 26
Waxing Crescent
Oct 30
First Quarter
Nov 6
Full
Nov 14
Last Quarter
Nov 22
New

Hourly Weather History & Observations

Time (EDT) Temp. Dew Point Humidity Pressure Visibility Wind Dir Wind Speed Gust Speed Precip Events Conditions
12:15 AM 57.2 °F 41.0 °F 55% 29.59 in 10.0 mi SW 11.5 mph 16.1 mph N/A   Clear
12:35 AM 57.2 °F 41.0 °F 55% 29.58 in 10.0 mi SW 11.5 mph 16.1 mph N/A   Clear
12:55 AM 57.2 °F 41.0 °F 55% 29.58 in 10.0 mi SW 9.2 mph 16.1 mph N/A   Clear
1:15 AM 57.2 °F 41.0 °F 55% 29.58 in 10.0 mi SW 9.2 mph - N/A   Partly Cloudy
1:35 AM 57.2 °F 39.2 °F 51% 29.58 in 10.0 mi WSW 9.2 mph - N/A   Mostly Cloudy
1:55 AM 57.2 °F 41.0 °F 55% 29.58 in 10.0 mi West 8.1 mph - N/A   Overcast
2:15 AM 57.2 °F 41.0 °F 55% 29.59 in 10.0 mi West 8.1 mph - N/A   Overcast
2:35 AM 57.2 °F 41.0 °F 55% 29.59 in 10.0 mi West 6.9 mph - N/A   Overcast
2:55 AM 57.2 °F 41.0 °F 55% 29.58 in 10.0 mi West 6.9 mph - N/A   Overcast
3:15 AM 55.4 °F 41.0 °F 58% 29.58 in 10.0 mi West 4.6 mph - N/A   Overcast
3:35 AM 55.4 °F 41.0 °F 58% 29.57 in 10.0 mi SW 6.9 mph - N/A   Mostly Cloudy
3:55 AM 55.4 °F 41.0 °F 58% 29.58 in 10.0 mi WSW 4.6 mph - N/A   Partly Cloudy
4:15 AM 53.6 °F 41.0 °F 62% 29.58 in 10.0 mi WSW 5.8 mph - N/A   Partly Cloudy
4:35 AM 53.6 °F 42.8 °F 67% 29.58 in 10.0 mi WSW 6.9 mph - N/A   Scattered Clouds
4:55 AM 53.6 °F 41.0 °F 62% 29.58 in 10.0 mi WSW 5.8 mph - N/A   Partly Cloudy
5:15 AM 51.8 °F 41.0 °F 67% 29.58 in 10.0 mi West 4.6 mph - N/A   Clear
5:35 AM 53.6 °F 42.8 °F 67% 29.59 in 10.0 mi West 8.1 mph - N/A   Partly Cloudy
5:55 AM 53.6 °F 42.8 °F 67% 29.61 in 10.0 mi WNW 12.7 mph 17.3 mph N/A   Scattered Clouds
6:15 AM 55.4 °F 42.8 °F 63% 29.62 in 10.0 mi NW 11.5 mph - N/A   Partly Cloudy
6:35 AM 55.4 °F 39.2 °F 54% 29.63 in 10.0 mi NW 10.4 mph - N/A   Mostly Cloudy
6:55 AM 55.4 °F 37.4 °F 51% 29.63 in 10.0 mi NW 9.2 mph - N/A   Overcast
7:15 AM 55.4 °F 37.4 °F 51% 29.64 in 10.0 mi NW 11.5 mph 19.6 mph N/A   Overcast
7:35 AM 53.6 °F 35.6 °F 51% 29.64 in 10.0 mi NW 6.9 mph - N/A   Mostly Cloudy
7:55 AM 53.6 °F 35.6 °F 51% 29.65 in 10.0 mi WNW 3.5 mph - N/A   Partly Cloudy
8:15 AM 53.6 °F 37.4 °F 54% 29.66 in 10.0 mi WNW 5.8 mph - N/A   Clear
8:35 AM 55.4 °F 35.6 °F 47% 29.66 in 10.0 mi WNW 9.2 mph - N/A   Clear
8:55 AM 57.2 °F 35.6 °F 44% 29.67 in 10.0 mi WNW 11.5 mph - N/A   Clear
9:15 AM 57.2 °F 35.6 °F 44% 29.67 in 10.0 mi WNW 11.5 mph 20.7 mph N/A   Clear
9:35 AM 59.0 °F 35.6 °F 42% 29.67 in 10.0 mi West 11.5 mph 16.1 mph N/A   Partly Cloudy
9:55 AM 59.0 °F 35.6 °F 42% 29.66 in 10.0 mi West 15.0 mph 21.9 mph N/A   Clear
10:15 AM 60.8 °F 35.6 °F 39% 29.65 in 10.0 mi West 18.4 mph 24.2 mph N/A   Clear
10:35 AM 60.8 °F 33.8 °F 36% 29.65 in 10.0 mi WNW 19.6 mph 28.8 mph N/A   Clear
10:55 AM 60.8 °F 33.8 °F 36% 29.66 in 10.0 mi WNW 26.5 mph 33.4 mph N/A   Clear
11:15 AM 60.8 °F 33.8 °F 36% 29.65 in 10.0 mi NW 17.3 mph 29.9 mph N/A   Clear
11:35 AM 60.8 °F 33.8 °F 36% 29.65 in 10.0 mi WNW 18.4 mph 26.5 mph N/A   Clear
11:55 AM 62.6 °F 35.6 °F 37% 29.65 in 10.0 mi NW 23.0 mph 31.1 mph N/A   Partly Cloudy
12:15 PM 62.6 °F 35.6 °F 37% 29.65 in 10.0 mi WNW 18.4 mph 33.4 mph N/A   Partly Cloudy
12:35 PM 62.6 °F 35.6 °F 37% 29.66 in 10.0 mi WNW 20.7 mph 31.1 mph N/A   Partly Cloudy
12:55 PM 62.6 °F 35.6 °F 37% 29.66 in 10.0 mi WNW 23.0 mph 33.4 mph N/A   Clear
1:15 PM 62.6 °F 35.6 °F 37% 29.65 in 10.0 mi WNW 23.0 mph 33.4 mph N/A   Clear
1:35 PM 62.6 °F 35.6 °F 37% 29.65 in 10.0 mi WNW 20.7 mph 29.9 mph N/A   Partly Cloudy
1:55 PM 62.6 °F 35.6 °F 37% 29.64 in 10.0 mi NW 17.3 mph 27.6 mph N/A   Clear
2:15 PM 62.6 °F 35.6 °F 37% 29.64 in 10.0 mi NW 20.7 mph 25.3 mph N/A   Clear
2:35 PM 62.6 °F 35.6 °F 37% 29.65 in 10.0 mi West 19.6 mph 31.1 mph N/A   Clear
2:55 PM 62.6 °F 35.6 °F 37% 29.66 in 10.0 mi WNW 21.9 mph 28.8 mph N/A   Partly Cloudy
3:15 PM 62.6 °F 35.6 °F 37% 29.66 in 10.0 mi West 16.1 mph 25.3 mph N/A   Partly Cloudy
3:35 PM 62.6 °F 35.6 °F 37% 29.67 in 10.0 mi WNW 17.3 mph 26.5 mph N/A   Partly Cloudy
3:55 PM 62.6 °F 35.6 °F 37% 29.68 in 10.0 mi WNW 21.9 mph 29.9 mph N/A   Scattered Clouds
4:15 PM 62.6 °F 35.6 °F 37% 29.69 in 10.0 mi WNW 11.5 mph 23.0 mph N/A   Mostly Cloudy
4:35 PM 62.6 °F 35.6 °F 37% 29.70 in 10.0 mi WNW 15.0 mph 19.6 mph N/A   Overcast
4:55 PM 60.8 °F 35.6 °F 39% 29.71 in 10.0 mi WNW 13.8 mph 21.9 mph N/A   Overcast
5:15 PM 60.8 °F 35.6 °F 39% 29.71 in 10.0 mi NW 9.2 mph - N/A   Overcast
5:35 PM 60.8 °F 35.6 °F 39% 29.72 in 10.0 mi NW 11.5 mph 19.6 mph N/A   Overcast
5:55 PM 60.8 °F 35.6 °F 39% 29.73 in 10.0 mi NW 10.4 mph - N/A   Overcast
6:15 PM 60.8 °F 35.6 °F 39% 29.74 in 10.0 mi NW 10.4 mph 19.6 mph N/A   Overcast
6:35 PM 60.8 °F 35.6 °F 39% 29.76 in 10.0 mi NW 9.2 mph - N/A   Overcast
6:55 PM 59.0 °F 35.6 °F 42% 29.77 in 10.0 mi NNW 6.9 mph - N/A   Overcast
7:15 PM 57.2 °F 35.6 °F 44% 29.78 in 10.0 mi NNW 8.1 mph - N/A   Overcast
7:35 PM 57.2 °F 35.6 °F 44% 29.80 in 10.0 mi NW 6.9 mph - N/A   Overcast
7:55 PM 57.2 °F 35.6 °F 44% 29.81 in 10.0 mi NW 8.1 mph - N/A   Overcast
8:15 PM 55.4 °F 35.6 °F 47% 29.82 in 10.0 mi NNW 9.2 mph - N/A   Partly Cloudy
8:35 PM 53.6 °F 35.6 °F 51% 29.82 in 10.0 mi NW 4.6 mph - N/A   Clear
8:55 PM 53.6 °F 35.6 °F 51% 29.82 in 10.0 mi NW 4.6 mph - N/A   Clear
9:15 PM 53.6 °F 35.6 °F 51% 29.83 in 10.0 mi WNW 5.8 mph - N/A   Clear
9:35 PM 51.8 °F 35.6 °F 54% 29.83 in 10.0 mi WNW 5.8 mph - N/A   Clear
9:55 PM 51.8 °F 35.6 °F 54% 29.84 in 10.0 mi West 4.6 mph - N/A   Clear
10:15 PM 51.8 °F 35.6 °F 54% 29.84 in 10.0 mi Calm Calm - N/A   Clear
10:35 PM 51.8 °F 35.6 °F 54% 29.85 in 10.0 mi West 5.8 mph - N/A   Clear
10:55 PM 50.0 °F 35.6 °F 58% 29.85 in 10.0 mi WNW 6.9 mph - N/A   Clear
11:15 PM 50.0 °F 35.6 °F 58% 29.86 in 10.0 mi West 4.6 mph - N/A   Clear
11:35 PM 48.2 °F 33.8 °F 58% 29.86 in 10.0 mi NW 4.6 mph - N/A   Clear
11:55 PM 48.2 °F 35.6 °F 62% 29.86 in 10.0 mi West 5.8 mph - N/A   Clear